Time,TemperatureF,DewpointF,PressureIn,WindDirection,WindDirectionDegrees,WindSpeedMPH,WindSpeedGustMPH,Humidity,HourlyPrecipIn,Conditions,Clouds,dailyrainin,SoftwareType,DateUTC
2013-11-30 00:01:00,17.9,2.9,30.53,North,1,0.0,0.0,51,0.00,,,0.00,WeatherCatV1.11B39,2013-11-30 05:01:00,
2013-11-30 00:06:00,17.6,3.0,30.54,North,1,0.0,0.0,52,0.00,,,0.00,WeatherCatV1.11B39,2013-11-30 05:06:00,
2013-11-30 00:11:00,17.3,2.7,30.54,North,1,0.0,0.0,52,0.00,,,0.00,WeatherCatV1.11B39,2013-11-30 05:11:00,
2013-11-30 00:16:00,17.2,2.6,30.53,North,1,0.0,0.0,52,0.00,,,0.00,WeatherCatV1.11B39,2013-11-30 05:16:00,
2013-11-30 00:21:00,17.3,3.1,30.54,North,1,0.0,0.0,53,0.00,,,0.00,WeatherCatV1.11B39,2013-11-30 05:21:00,
2013-11-30 00:26:00,17.2,3.0,30.53,North,1,0.0,0.0,53,0.00,,,0.00,WeatherCatV1.11B39,2013-11-30 05:26:00,
2013-11-30 00:31:00,17.2,4.2,30.54,North,1,0.0,0.0,56,0.00,,,0.00,WeatherCatV1.11B39,2013-11-30 05:31:00,
2013-11-30 00:36:00,16.9,4.7,30.54,North,1,0.0,0.0,58,0.00,,,0.00,WeatherCatV1.11B39,2013-11-30 05:36:00,
2013-11-30 00:41:00,16.8,5.0,30.54,North,1,0.0,0.0,59,0.00,,,0.00,WeatherCatV1.11B39,2013-11-30 05:41:00,
2013-11-30 00:46:00,16.5,4.7,30.54,North,1,0.0,0.0,59,0.00,,,0.00,WeatherCatV1.11B39,2013-11-30 05:46:00,
2013-11-30 00:51:00,16.3,4.9,30.54,North,1,0.0,0.0,60,0.00,,,0.00,WeatherCatV1.11B39,2013-11-30 05:51:00,
2013-11-30 00:56:00,16.1,4.7,30.54,North,1,0.0,0.0,60,0.00,,,0.00,WeatherCatV1.11B39,2013-11-30 05:56:00,
2013-11-30 01:01:00,16.0,4.2,30.54,North,1,0.0,0.0,59,0.00,,,0.00,WeatherCatV1.11B39,2013-11-30 06:01:00,
2013-11-30 01:06:00,15.8,4.4,30.54,North,1,0.0,0.0,60,0.00,,,0.00,WeatherCatV1.11B39,2013-11-30 06:06:00,
2013-11-30 01:11:00,15.7,4.0,30.54,North,1,0.0,0.0,59,0.00,,,0.00,WeatherCatV1.11B39,2013-11-30 06:11:00,
2013-11-30 01:16:00,15.8,3.7,30.54,North,1,0.0,0.0,58,0.00,,,0.00,WeatherCatV1.11B39,2013-11-30 06:16:00,
2013-11-30 01:21:00,15.8,3.7,30.54,North,1,0.0,0.0,58,0.00,,,0.00,WeatherCatV1.11B39,2013-11-30 06:21:00,
2013-11-30 01:26:00,16.1,4.0,30.54,North,1,0.0,0.0,58,0.00,,,0.00,WeatherCatV1.11B39,2013-11-30 06:26:00,
2013-11-30 01:31:00,16.3,4.1,30.54,North,1,0.0,0.0,58,0.00,,,0.00,WeatherCatV1.11B39,2013-11-30 06:31:00,
2013-11-30 01:36:00,16.3,3.8,30.55,North,1,0.0,0.0,57,0.00,,,0.00,WeatherCatV1.11B39,2013-11-30 06:36:00,
2013-11-30 01:41:00,16.5,4.0,30.55,North,1,0.0,0.0,57,0.00,,,0.00,WeatherCatV1.11B39,2013-11-30 06:41:00,
2013-11-30 01:46:00,16.3,3.8,30.55,North,1,0.0,0.0,57,0.00,,,0.00,WeatherCatV1.11B39,2013-11-30 06:46:00,
2013-11-30 01:51:00,16.2,3.7,30.55,North,1,0.0,0.0,57,0.00,,,0.00,WeatherCatV1.11B39,2013-11-30 06:51:00,
2013-11-30 01:56:00,16.0,3.5,30.55,North,1,0.0,0.0,57,0.00,,,0.00,WeatherCatV1.11B39,2013-11-30 06:56:00,
2013-11-30 02:01:00,15.7,3.6,30.55,North,1,0.0,0.0,58,0.00,,,0.00,WeatherCatV1.11B39,2013-11-30 07:01:00,
2013-11-30 02:06:00,15.3,3.2,30.55,North,1,0.0,0.0,58,0.00,,,0.00,WeatherCatV1.11B39,2013-11-30 07:06:00,
2013-11-30 02:11:00,15.4,3.3,30.55,North,1,0.0,0.0,58,0.00,,,0.00,WeatherCatV1.11B39,2013-11-30 07:11:00,
2013-11-30 02:16:00,15.5,4.1,30.55,North,1,0.0,0.0,60,0.00,,,0.00,WeatherCatV1.11B39,2013-11-30 07:16:00,
2013-11-30 02:21:00,15.5,4.8,30.55,North,1,0.0,0.0,62,0.00,,,0.00,WeatherCatV1.11B39,2013-11-30 07:21:00,
2013-11-30 02:26:00,15.3,5.0,30.56,North,1,0.0,0.0,63,0.00,,,0.00,WeatherCatV1.11B39,2013-11-30 07:26:00,
2013-11-30 02:31:00,15.2,4.9,30.56,North,1,0.0,0.0,63,0.00,,,0.00,WeatherCatV1.11B39,2013-11-30 07:31:00,
2013-11-30 02:36:00,14.8,4.5,30.56,North,1,0.0,0.0,63,0.00,,,0.00,WeatherCatV1.11B39,2013-11-30 07:36:00,
2013-11-30 02:41:00,14.7,4.8,30.56,North,1,0.0,0.0,64,0.00,,,0.00,WeatherCatV1.11B39,2013-11-30 07:41:00,
2013-11-30 02:46:00,14.5,4.6,30.56,North,1,0.0,0.0,64,0.00,,,0.00,WeatherCatV1.11B39,2013-11-30 07:46:00,
2013-11-30 02:51:00,14.5,4.9,30.56,North,1,0.0,0.0,65,0.00,,,0.00,WeatherCatV1.11B39,2013-11-30 07:51:00,
2013-11-30 02:56:00,14.4,4.8,30.55,North,1,0.0,0.0,65,0.00,,,0.00,WeatherCatV1.11B39,2013-11-30 07:56:00,
2013-11-30 03:01:00,14.2,5.0,30.55,North,1,0.0,0.0,66,0.00,,,0.00,WeatherCatV1.11B39,2013-11-30 08:01:00,
2013-11-30 03:06:00,14.0,4.8,30.55,North,1,0.0,0.0,66,0.00,,,0.00,WeatherCatV1.11B39,2013-11-30 08:06:00,
2013-11-30 03:11:00,14.0,5.1,30.56,North,1,0.0,0.0,67,0.00,,,0.00,WeatherCatV1.11B39,2013-11-30 08:11:00,
2013-11-30 03:16:00,14.1,5.5,30.55,North,1,0.0,0.0,68,0.00,,,0.00,WeatherCatV1.11B39,2013-11-30 08:16:00,
2013-11-30 03:21:00,14.0,5.4,30.55,North,1,0.0,0.0,68,0.00,,,0.00,WeatherCatV1.11B39,2013-11-30 08:21:00,
2013-11-30 03:26:00,14.0,5.4,30.55,North,1,0.0,0.0,68,0.00,,,0.00,WeatherCatV1.11B39,2013-11-30 08:26:00,
2013-11-30 03:31:00,14.0,5.7,30.56,North,1,0.0,0.0,69,0.00,,,0.00,WeatherCatV1.11B39,2013-11-30 08:31:00,
2013-11-30 03:36:00,14.1,5.8,30.56,North,1,0.0,0.0,69,0.00,,,0.00,WeatherCatV1.11B39,2013-11-30 08:36:00,
2013-11-30 03:41:00,13.9,6.0,30.56,North,1,0.0,0.0,70,0.00,,,0.00,WeatherCatV1.11B39,2013-11-30 08:41:00,
2013-11-30 03:46:00,13.5,5.3,30.56,North,1,0.0,0.0,69,0.00,,,0.00,WeatherCatV1.11B39,2013-11-30 08:46:00,
2013-11-30 03:51:00,13.4,5.5,30.56,North,1,0.0,0.0,70,0.00,,,0.00,WeatherCatV1.11B39,2013-11-30 08:51:00,
2013-11-30 03:56:00,13.4,5.8,30.56,North,1,0.0,0.0,71,0.00,,,0.00,WeatherCatV1.11B39,2013-11-30 08:56:00,
2013-11-30 04:01:00,13.4,5.8,30.56,North,1,0.0,0.0,71,0.00,,,0.00,WeatherCatV1.11B39,2013-11-30 09:01:00,
2013-11-30 04:06:00,13.3,5.7,30.55,North,1,0.0,0.0,71,0.00,,,0.00,WeatherCatV1.11B39,2013-11-30 09:06:00,
2013-11-30 04:11:00,13.1,5.5,30.56,North,1,0.0,0.0,71,0.00,,,0.00,WeatherCatV1.11B39,2013-11-30 09:11:00,
2013-11-30 04:16:00,12.9,5.0,30.56,North,1,0.0,0.0,70,0.00,,,0.00,WeatherCatV1.11B39,2013-11-30 09:16:00,
2013-11-30 04:21:00,12.9,5.0,30.56,North,1,0.0,0.0,70,0.00,,,0.00,WeatherCatV1.11B39,2013-11-30 09:21:00,
2013-11-30 04:26:00,12.9,5.0,30.57,North,1,0.0,0.0,70,0.00,,,0.00,WeatherCatV1.11B39,2013-11-30 09:26:00,
2013-11-30 04:31:00,12.9,5.0,30.57,North,1,0.0,0.0,70,0.00,,,0.00,WeatherCatV1.11B39,2013-11-30 09:31:00,
2013-11-30 04:36:00,12.7,4.8,30.56,North,1,0.0,0.0,70,0.00,,,0.00,WeatherCatV1.11B39,2013-11-30 09:36:00,
2013-11-30 04:41:00,12.7,4.5,30.56,North,1,0.0,0.0,69,0.00,,,0.00,WeatherCatV1.11B39,2013-11-30 09:41:00,
2013-11-30 04:46:00,12.6,4.7,30.56,North,1,0.0,0.0,70,0.00,,,0.00,WeatherCatV1.11B39,2013-11-30 09:46:00,
2013-11-30 04:51:00,12.6,4.7,30.56,North,2,0.0,0.0,70,0.00,,,0.00,WeatherCatV1.11B39,2013-11-30 09:51:00,
2013-11-30 04:56:00,12.7,4.8,30.56,North,1,0.0,0.0,70,0.00,,,0.00,WeatherCatV1.11B39,2013-11-30 09:56:00,
2013-11-30 05:01:00,12.7,4.8,30.56,North,1,0.0,0.0,70,0.00,,,0.00,WeatherCatV1.11B39,2013-11-30 10:01:00,
2013-11-30 05:06:00,12.5,4.9,30.56,North,1,0.0,0.0,71,0.00,,,0.00,WeatherCatV1.11B39,2013-11-30 10:06:00,
2013-11-30 05:11:00,12.6,5.0,30.56,North,1,0.0,0.0,71,0.00,,,0.00,WeatherCatV1.11B39,2013-11-30 10:11:00,
2013-11-30 05:16:00,12.4,4.8,30.56,North,1,0.0,0.0,71,0.00,,,0.00,WeatherCatV1.11B39,2013-11-30 10:16:00,
2013-11-30 05:21:00,12.4,4.8,30.57,North,2,0.0,0.0,71,0.00,,,0.00,WeatherCatV1.11B39,2013-11-30 10:21:00,
2013-11-30 05:26:00,12.3,5.0,30.56,North,1,0.0,0.0,72,0.00,,,0.00,WeatherCatV1.11B39,2013-11-30 10:26:00,
2013-11-30 05:31:00,12.2,4.6,30.57,North,2,0.0,0.0,71,0.00,,,0.00,WeatherCatV1.11B39,2013-11-30 10:31:00,
2013-11-30 05:36:00,12.2,4.6,30.57,North,1,0.0,0.0,71,0.00,,,0.00,WeatherCatV1.11B39,2013-11-30 10:36:00,
2013-11-30 05:41:00,12.0,4.7,30.57,North,2,0.0,0.0,72,0.00,,,0.00,WeatherCatV1.11B39,2013-11-30 10:41:00,
2013-11-30 05:46:00,12.0,4.7,30.57,North,1,0.0,0.0,72,0.00,,,0.00,WeatherCatV1.11B39,2013-11-30 10:46:00,
2013-11-30 05:51:00,11.7,4.1,30.57,North,1,0.0,0.0,71,0.00,,,0.00,WeatherCatV1.11B39,2013-11-30 10:51:00,
2013-11-30 05:56:00,11.5,4.3,30.57,North,1,0.0,0.0,72,0.00,,,0.00,WeatherCatV1.11B39,2013-11-30 10:56:00,
2013-11-30 06:01:00,11.7,4.7,30.57,North,1,0.0,0.0,73,0.00,,,0.00,WeatherCatV1.11B39,2013-11-30 11:01:00,
2013-11-30 06:06:00,11.7,4.7,30.57,North,1,0.0,0.0,73,0.00,,,0.00,WeatherCatV1.11B39,2013-11-30 11:06:00,
2013-11-30 06:11:00,11.6,4.9,30.57,North,1,0.0,0.0,74,0.00,,,0.00,WeatherCatV1.11B39,2013-11-30 11:11:00,
2013-11-30 06:16:00,11.5,4.6,30.57,North,1,0.0,0.0,73,0.00,,,0.00,WeatherCatV1.11B39,2013-11-30 11:16:00,
2013-11-30 06:21:00,11.6,4.7,30.58,North,1,0.0,0.0,73,0.00,,,0.00,WeatherCatV1.11B39,2013-11-30 11:21:00,
2013-11-30 06:26:00,11.6,4.9,30.58,North,1,0.0,0.0,74,0.00,,,0.00,WeatherCatV1.11B39,2013-11-30 11:26:00,
2013-11-30 06:31:00,11.6,4.9,30.57,North,1,0.0,0.0,74,0.00,,,0.00,WeatherCatV1.11B39,2013-11-30 11:31:00,
2013-11-30 06:36:00,11.4,4.8,30.58,North,1,0.0,0.0,74,0.00,,,0.00,WeatherCatV1.11B39,2013-11-30 11:36:00,
2013-11-30 06:41:00,11.2,4.8,30.58,North,1,0.0,0.0,75,0.00,,,0.00,WeatherCatV1.11B39,2013-11-30 11:41:00,
2013-11-30 06:46:00,11.2,4.6,30.58,North,1,0.0,0.0,74,0.00,,,0.00,WeatherCatV1.11B39,2013-11-30 11:46:00,
2013-11-30 06:51:00,11.0,4.4,30.58,North,1,0.0,0.0,74,0.00,,,0.00,WeatherCatV1.11B39,2013-11-30 11:51:00,
2013-11-30 06:56:00,11.0,4.7,30.58,North,1,0.0,0.0,75,0.00,,,0.00,WeatherCatV1.11B39,2013-11-30 11:56:00,
2013-11-30 07:01:00,11.0,4.7,30.58,North,1,0.0,0.0,75,0.00,,,0.00,WeatherCatV1.11B39,2013-11-30 12:01:00,
2013-11-30 07:06:00,11.0,4.7,30.58,North,1,0.0,0.0,75,0.00,,,0.00,WeatherCatV1.11B39,2013-11-30 12:06:00,
2013-11-30 07:11:00,11.1,4.8,30.58,North,1,0.0,0.0,75,0.00,,,0.00,WeatherCatV1.11B39,2013-11-30 12:11:00,
2013-11-30 07:16:00,11.2,4.8,30.58,North,1,0.0,0.0,75,0.00,,,0.00,WeatherCatV1.11B39,2013-11-30 12:16:00,
2013-11-30 07:21:00,11.2,4.8,30.58,North,1,0.0,0.0,75,0.00,,,0.00,WeatherCatV1.11B39,2013-11-30 12:21:00,
2013-11-30 07:26:00,11.2,4.8,30.58,North,1,0.0,0.0,75,0.00,,,0.00,WeatherCatV1.11B39,2013-11-30 12:26:00,
2013-11-30 07:31:00,11.4,5.0,30.58,North,1,0.0,0.0,75,0.00,,,0.00,WeatherCatV1.11B39,2013-11-30 12:31:00,
2013-11-30 07:36:00,11.5,5.1,30.58,North,1,0.0,0.0,75,0.00,,,0.00,WeatherCatV1.11B39,2013-11-30 12:36:00,
2013-11-30 07:41:00,11.7,5.6,30.59,North,1,0.0,0.0,76,0.00,,,0.00,WeatherCatV1.11B39,2013-11-30 12:41:00,
2013-11-30 07:46:00,12.1,6.0,30.59,North,3,0.0,0.0,76,0.00,,,0.00,WeatherCatV1.11B39,2013-11-30 12:46:00,
2013-11-30 07:51:00,12.4,6.3,30.59,North,7,0.0,0.0,76,0.00,,,0.00,WeatherCatV1.11B39,2013-11-30 12:51:00,
2013-11-30 07:56:00,12.7,6.6,30.59,NNE,31,0.0,0.0,76,0.00,,,0.00,WeatherCatV1.11B39,2013-11-30 12:56:00,
2013-11-30 08:01:00,13.3,7.2,30.59,NNE,31,0.0,0.0,76,0.00,,,0.00,WeatherCatV1.11B39,2013-11-30 13:01:00,
2013-11-30 08:06:00,13.9,7.8,30.59,NNE,30,0.0,0.0,76,0.00,,,0.00,WeatherCatV1.11B39,2013-11-30 13:06:00,
2013-11-30 08:11:00,14.4,8.0,30.59,NNE,22,0.0,0.0,75,0.00,,,0.00,WeatherCatV1.11B39,2013-11-30 13:11:00,
2013-11-30 08:16:00,14.7,8.2,30.59,NNE,21,0.0,0.0,75,0.00,,,0.00,WeatherCatV1.11B39,2013-11-30 13:16:00,
2013-11-30 08:21:00,15.2,8.4,30.59,NNE,19,0.0,0.0,74,0.00,,,0.00,WeatherCatV1.11B39,2013-11-30 13:21:00,
2013-11-30 08:26:00,15.7,8.6,30.59,NNE,18,0.0,0.0,73,0.00,,,0.00,WeatherCatV1.11B39,2013-11-30 13:26:00,
2013-11-30 08:31:00,16.2,9.1,30.59,NNE,17,0.0,0.0,73,0.00,,,0.00,WeatherCatV1.11B39,2013-11-30 13:31:00,
2013-11-30 08:36:00,16.6,9.2,30.58,NNE,17,0.0,0.0,72,0.00,,,0.00,WeatherCatV1.11B39,2013-11-30 13:36:00,
2013-11-30 08:41:00,17.1,9.3,30.59,NNE,16,0.0,0.0,71,0.00,,,0.00,WeatherCatV1.11B39,2013-11-30 13:41:00,
2013-11-30 08:46:00,17.6,9.5,30.59,NNE,20,0.0,0.0,70,0.00,,,0.00,WeatherCatV1.11B39,2013-11-30 13:46:00,
2013-11-30 08:51:00,18.2,8.8,30.58,NNE,21,0.0,0.0,66,0.00,,,0.00,WeatherCatV1.11B39,2013-11-30 13:51:00,
2013-11-30 08:56:00,19.0,9.2,30.58,NNE,21,0.0,0.0,65,0.00,,,0.00,WeatherCatV1.11B39,2013-11-30 13:56:00,
2013-11-30 09:01:00,19.5,8.6,30.58,NNE,31,0.0,0.0,62,0.00,,,0.00,WeatherCatV1.11B39,2013-11-30 14:01:00,
2013-11-30 09:07:00,20.1,8.8,30.59,NE,34,0.0,0.0,61,0.00,,,0.00,WeatherCatV1.11B39,2013-11-30 14:07:00,
2013-11-30 09:12:00,20.5,8.1,30.59,ENE,70,0.0,0.0,58,0.00,,,0.00,WeatherCatV1.11B39,2013-11-30 14:12:00,
2013-11-30 09:16:00,20.8,8.0,30.58,NE,44,0.0,0.0,57,0.00,,,0.00,WeatherCatV1.11B39,2013-11-30 14:16:00,
2013-11-30 09:21:00,21.1,7.5,30.58,NE,45,0.0,0.0,55,0.00,,,0.00,WeatherCatV1.11B39,2013-11-30 14:21:00,
2013-11-30 09:26:00,21.3,7.7,30.58,NE,45,0.0,0.0,55,0.00,,,0.00,WeatherCatV1.11B39,2013-11-30 14:26:00,
2013-11-30 09:32:00,21.7,6.8,30.58,NE,52,0.0,0.0,52,0.00,,,0.00,WeatherCatV1.11B39,2013-11-30 14:32:00,
2013-11-30 09:36:00,21.7,6.4,30.58,ENE,65,0.0,0.0,51,0.00,,,0.00,WeatherCatV1.11B39,2013-11-30 14:36:00,
2013-11-30 09:41:00,21.9,7.0,30.58,ENE,64,0.0,0.0,52,0.00,,,0.00,WeatherCatV1.11B39,2013-11-30 14:41:00,
2013-11-30 09:46:00,22.3,7.0,30.57,ENE,64,0.0,0.0,51,0.00,,,0.00,WeatherCatV1.11B39,2013-11-30 14:46:00,
2013-11-30 09:51:00,22.5,6.7,30.57,South,187,0.0,0.0,50,0.00,,,0.00,WeatherCatV1.11B39,2013-11-30 14:51:00,
2013-11-30 09:57:00,22.9,7.1,30.57,South,185,0.0,0.0,50,0.00,,,0.00,WeatherCatV1.11B39,2013-11-30 14:57:00,
2013-11-30 10:02:00,23.3,7.0,30.57,NE,51,0.0,0.0,49,0.00,,,0.00,WeatherCatV1.11B39,2013-11-30 15:02:00,
2013-11-30 10:07:00,23.7,7.4,30.57,NNE,12,0.0,0.0,49,0.00,,,0.00,WeatherCatV1.11B39,2013-11-30 15:07:00,
2013-11-30 10:12:00,24.1,7.3,30.56,WSW,251,0.0,0.0,48,0.00,,,0.00,WeatherCatV1.11B39,2013-11-30 15:12:00,
2013-11-30 10:17:00,24.7,7.8,30.56,WSW,252,0.0,0.0,48,0.00,,,0.00,WeatherCatV1.11B39,2013-11-30 15:17:00,
2013-11-30 10:22:00,25.1,7.7,30.56,WSW,252,0.0,0.0,47,0.00,,,0.00,WeatherCatV1.11B39,2013-11-30 15:22:00,
2013-11-30 10:27:00,25.6,7.2,30.56,South,185,0.0,0.0,45,0.00,,,0.00,WeatherCatV1.11B39,2013-11-30 15:27:00,
2013-11-30 10:32:00,25.6,6.2,30.55,South,172,0.0,0.0,43,0.00,,,0.00,WeatherCatV1.11B39,2013-11-30 15:32:00,
2013-11-30 10:37:00,25.8,6.9,30.55,South,172,0.0,0.0,44,0.00,,,0.00,WeatherCatV1.11B39,2013-11-30 15:37:00,
2013-11-30 10:42:00,26.2,6.8,30.55,South,172,0.0,0.0,43,0.00,,,0.00,WeatherCatV1.11B39,2013-11-30 15:42:00,
2013-11-30 10:47:00,26.5,6.5,30.55,South,169,0.0,0.0,42,0.00,,,0.00,WeatherCatV1.11B39,2013-11-30 15:47:00,
2013-11-30 10:52:00,26.8,6.8,30.54,ESE,120,0.0,0.0,42,0.00,,,0.00,WeatherCatV1.11B39,2013-11-30 15:52:00,
2013-11-30 10:57:00,26.6,5.6,30.54,East,87,0.0,0.0,40,0.00,,,0.00,WeatherCatV1.11B39,2013-11-30 15:57:00,
2013-11-30 11:02:00,26.8,6.8,30.54,East,83,0.0,0.0,42,0.00,,,0.00,WeatherCatV1.11B39,2013-11-30 16:02:00,
2013-11-30 11:07:00,27.4,7.4,30.54,East,92,0.0,0.0,42,0.00,,,0.00,WeatherCatV1.11B39,2013-11-30 16:07:00,
2013-11-30 11:12:00,27.2,6.1,30.53,NE,43,0.0,0.0,40,0.00,,,0.00,WeatherCatV1.11B39,2013-11-30 16:12:00,
2013-11-30 11:17:00,27.8,8.2,30.52,NNW,348,0.0,0.0,43,0.00,,,0.00,WeatherCatV1.11B39,2013-11-30 16:17:00,
2013-11-30 11:22:00,27.5,5.8,30.52,NW,319,0.0,0.0,39,0.00,,,0.00,WeatherCatV1.11B39,2013-11-30 16:22:00,
2013-11-30 11:27:00,27.4,6.8,30.52,NW,320,0.0,0.0,41,0.00,,,0.00,WeatherCatV1.11B39,2013-11-30 16:27:00,
2013-11-30 11:32:00,27.5,7.5,30.52,NW,320,0.0,0.0,42,0.00,,,0.00,WeatherCatV1.11B39,2013-11-30 16:32:00,
2013-11-30 11:37:00,27.4,5.2,30.52,North,1,0.0,0.0,38,0.00,,,0.00,WeatherCatV1.11B39,2013-11-30 16:37:00,
2013-11-30 11:42:00,27.5,7.5,30.51,North,1,0.0,0.0,42,0.00,,,0.00,WeatherCatV1.11B39,2013-11-30 16:42:00,
2013-11-30 11:47:00,28.4,8.8,30.51,NW,305,0.0,0.0,43,0.00,,,0.00,WeatherCatV1.11B39,2013-11-30 16:47:00,
2013-11-30 11:52:00,29.0,8.8,30.51,WNW,300,0.0,0.0,42,0.00,,,0.00,WeatherCatV1.11B39,2013-11-30 16:52:00,
2013-11-30 11:57:00,29.3,8.0,30.51,WNW,285,0.0,0.0,40,0.00,,,0.00,WeatherCatV1.11B39,2013-11-30 16:57:00,
2013-11-30 12:02:00,29.0,8.3,30.51,WNW,284,0.0,0.0,41,0.00,,,0.00,WeatherCatV1.11B39,2013-11-30 17:02:00,
2013-11-30 12:07:00,29.1,8.4,30.50,West,280,0.0,0.0,41,0.00,,,0.00,WeatherCatV1.11B39,2013-11-30 17:07:00,
2013-11-30 12:12:00,29.0,9.3,30.49,WSW,254,0.0,0.0,43,0.00,,,0.00,WeatherCatV1.11B39,2013-11-30 17:12:00,
2013-11-30 12:17:00,29.1,9.9,30.50,WSW,252,0.0,0.0,44,0.00,,,0.00,WeatherCatV1.11B39,2013-11-30 17:17:00,
2013-11-30 12:22:00,29.6,9.4,30.50,SSW,205,0.0,1.0,42,0.00,,,0.00,WeatherCatV1.11B39,2013-11-30 17:22:00,
2013-11-30 12:27:00,29.4,9.7,30.49,WSW,252,3.0,4.0,43,0.00,,,0.00,WeatherCatV1.11B39,2013-11-30 17:27:00,
2013-11-30 12:32:00,29.3,9.1,30.49,SW,218,0.0,5.0,42,0.00,,,0.00,WeatherCatV1.11B39,2013-11-30 17:32:00,
2013-11-30 12:37:00,29.6,9.9,30.49,ESE,120,0.0,0.0,43,0.00,,,0.00,WeatherCatV1.11B39,2013-11-30 17:37:00,
2013-11-30 12:42:00,30.3,10.0,30.48,South,175,0.0,3.0,42,0.00,,,0.00,WeatherCatV1.11B39,2013-11-30 17:42:00,
2013-11-30 12:47:00,30.8,11.5,30.48,NE,49,0.0,5.0,44,0.00,,,0.00,WeatherCatV1.11B39,2013-11-30 17:47:00,
2013-11-30 12:52:00,30.9,11.6,30.48,SE,144,1.0,1.0,44,0.00,,,0.00,WeatherCatV1.11B39,2013-11-30 17:52:00,
2013-11-30 12:57:00,31.3,11.4,30.47,SW,233,0.0,1.0,43,0.00,,,0.00,WeatherCatV1.11B39,2013-11-30 17:57:00,
2013-11-30 13:02:00,31.7,11.8,30.47,SSE,166,0.0,0.0,43,0.00,,,0.00,WeatherCatV1.11B39,2013-11-30 18:02:00,
2013-11-30 13:07:00,31.9,11.4,30.46,SW,222,0.0,0.0,42,0.00,,,0.00,WeatherCatV1.11B39,2013-11-30 18:07:00,
2013-11-30 13:12:00,31.9,11.4,30.46,SW,218,0.0,0.0,42,0.00,,,0.00,WeatherCatV1.11B39,2013-11-30 18:12:00,
2013-11-30 13:17:00,31.7,11.3,30.46,SW,225,0.0,0.0,42,0.00,,,0.00,WeatherCatV1.11B39,2013-11-30 18:17:00,
2013-11-30 13:22:00,32.2,12.8,30.45,SE,138,0.0,1.0,44,0.00,,,0.00,WeatherCatV1.11B39,2013-11-30 18:22:00,
2013-11-30 13:27:00,32.7,12.7,30.45,SSE,155,0.0,0.0,43,0.00,,,0.00,WeatherCatV1.11B39,2013-11-30 18:27:00,
2013-11-30 13:32:00,32.9,12.4,30.45,SE,134,0.0,0.0,42,0.00,,,0.00,WeatherCatV1.11B39,2013-11-30 18:32:00,
2013-11-30 13:37:00,33.1,13.1,30.45,WSW,254,0.0,3.0,43,0.00,,,0.00,WeatherCatV1.11B39,2013-11-30 18:37:00,
2013-11-30 13:42:00,33.5,12.9,30.44,SSE,159,0.0,0.0,42,0.00,,,0.00,WeatherCatV1.11B39,2013-11-30 18:42:00,
2013-11-30 13:47:00,33.6,12.4,30.44,SE,142,0.0,0.0,41,0.00,,,0.00,WeatherCatV1.11B39,2013-11-30 18:47:00,
2013-11-30 13:52:00,33.9,13.3,30.44,South,182,4.0,4.0,42,0.00,,,0.00,WeatherCatV1.11B39,2013-11-30 18:52:00,
2013-11-30 13:57:00,33.3,11.6,30.44,WSW,254,0.0,5.0,40,0.00,,,0.00,WeatherCatV1.11B39,2013-11-30 18:57:00,
2013-11-30 14:02:00,32.3,12.3,30.44,WSW,254,0.0,0.0,43,0.00,,,0.00,WeatherCatV1.11B39,2013-11-30 19:02:00,
2013-11-30 14:07:00,31.9,12.5,30.43,WSW,252,2.0,5.0,44,0.00,,,0.00,WeatherCatV1.11B39,2013-11-30 19:07:00,
2013-11-30 14:12:00,32.1,12.7,30.43,South,170,0.0,2.0,44,0.00,,,0.00,WeatherCatV1.11B39,2013-11-30 19:12:00,
2013-11-30 14:17:00,32.5,12.0,30.42,WSW,247,0.0,1.0,42,0.00,,,0.00,WeatherCatV1.11B39,2013-11-30 19:17:00,
2013-11-30 14:22:00,32.3,12.3,30.42,WSW,242,4.0,4.0,43,0.00,,,0.00,WeatherCatV1.11B39,2013-11-30 19:22:00,
2013-11-30 14:27:00,32.1,12.7,30.42,WSW,252,0.0,0.0,44,0.00,,,0.00,WeatherCatV1.11B39,2013-11-30 19:27:00,
2013-11-30 14:32:00,32.1,12.2,30.42,South,183,0.0,2.0,43,0.00,,,0.00,WeatherCatV1.11B39,2013-11-30 19:32:00,
2013-11-30 14:37:00,32.1,12.2,30.42,SSW,196,1.0,5.0,43,0.00,,,0.00,WeatherCatV1.11B39,2013-11-30 19:37:00,
2013-11-30 14:42:00,31.7,11.8,30.42,SSW,201,0.0,3.0,43,0.00,,,0.00,WeatherCatV1.11B39,2013-11-30 19:42:00,
2013-11-30 14:47:00,31.4,11.5,30.42,SSE,166,4.0,4.0,43,0.00,,,0.00,WeatherCatV1.11B39,2013-11-30 19:47:00,
2013-11-30 14:52:00,31.1,11.8,30.42,South,169,0.0,0.0,44,0.00,,,0.00,WeatherCatV1.11B39,2013-11-30 19:52:00,
2013-11-30 14:57:00,31.1,11.8,30.42,SSW,196,0.0,0.0,44,0.00,,,0.00,WeatherCatV1.11B39,2013-11-30 19:57:00,
2013-11-30 15:02:00,31.2,12.4,30.42,SSW,208,0.0,0.0,45,0.00,,,0.00,WeatherCatV1.11B39,2013-11-30 20:02:00,
2013-11-30 15:07:00,31.2,11.9,30.42,SSE,165,0.0,0.0,44,0.00,,,0.00,WeatherCatV1.11B39,2013-11-30 20:07:00,
2013-11-30 15:12:00,31.1,12.3,30.42,SSW,201,0.0,0.0,45,0.00,,,0.00,WeatherCatV1.11B39,2013-11-30 20:12:00,
2013-11-30 15:17:00,31.1,12.3,30.41,South,191,0.0,0.0,45,0.00,,,0.00,WeatherCatV1.11B39,2013-11-30 20:17:00,
2013-11-30 15:22:00,31.1,12.8,30.42,South,184,0.0,0.0,46,0.00,,,0.00,WeatherCatV1.11B39,2013-11-30 20:22:00,
2013-11-30 15:27:00,30.9,12.6,30.41,South,184,0.0,0.0,46,0.00,,,0.00,WeatherCatV1.11B39,2013-11-30 20:27:00,
2013-11-30 15:32:00,30.9,13.1,30.41,South,184,0.0,0.0,47,0.00,,,0.00,WeatherCatV1.11B39,2013-11-30 20:32:00,
2013-11-30 15:37:00,30.9,12.6,30.41,South,187,0.0,0.0,46,0.00,,,0.00,WeatherCatV1.11B39,2013-11-30 20:37:00,
2013-11-30 15:42:00,30.8,12.5,30.41,South,180,0.0,0.0,46,0.00,,,0.00,WeatherCatV1.11B39,2013-11-30 20:42:00,
2013-11-30 15:47:00,30.5,12.2,30.41,South,180,0.0,0.0,46,0.00,,,0.00,WeatherCatV1.11B39,2013-11-30 20:47:00,
2013-11-30 15:52:00,30.3,12.0,30.41,South,180,0.0,0.0,46,0.00,,,0.00,WeatherCatV1.11B39,2013-11-30 20:52:00,
2013-11-30 15:57:00,30.2,12.4,30.41,South,180,0.0,0.0,47,0.00,,,0.00,WeatherCatV1.11B39,2013-11-30 20:57:00,
2013-11-30 16:02:00,30.1,12.3,30.41,South,180,0.0,0.0,47,0.00,,,0.00,WeatherCatV1.11B39,2013-11-30 21:02:00,
2013-11-30 16:07:00,29.9,12.1,30.41,South,180,0.0,0.0,47,0.00,,,0.00,WeatherCatV1.11B39,2013-11-30 21:07:00,
2013-11-30 16:12:00,29.8,12.5,30.40,South,180,0.0,0.0,48,0.00,,,0.00,WeatherCatV1.11B39,2013-11-30 21:12:00,
2013-11-30 16:17:00,29.5,12.3,30.40,South,180,0.0,0.0,48,0.00,,,0.00,WeatherCatV1.11B39,2013-11-30 21:17:00,
2013-11-30 16:22:00,29.3,12.5,30.40,South,180,0.0,0.0,49,0.00,,,0.00,WeatherCatV1.11B39,2013-11-30 21:22:00,
2013-11-30 16:27:00,29.1,12.4,30.40,South,180,0.0,0.0,49,0.00,,,0.00,WeatherCatV1.11B39,2013-11-30 21:27:00,
2013-11-30 16:32:00,29.0,12.3,30.40,South,180,0.0,0.0,49,0.00,,,0.00,WeatherCatV1.11B39,2013-11-30 21:32:00,
2013-11-30 16:37:00,28.7,12.4,30.39,South,180,0.0,0.0,50,0.00,,,0.00,WeatherCatV1.11B39,2013-11-30 21:37:00,
2013-11-30 16:42:00,28.6,12.8,30.39,South,180,0.0,0.0,51,0.00,,,0.00,WeatherCatV1.11B39,2013-11-30 21:42:00,
2013-11-30 16:47:00,28.4,12.6,30.39,South,180,0.0,0.0,51,0.00,,,0.00,WeatherCatV1.11B39,2013-11-30 21:47:00,
2013-11-30 16:52:00,28.4,12.6,30.39,South,180,0.0,0.0,51,0.00,,,0.00,WeatherCatV1.11B39,2013-11-30 21:52:00,
2013-11-30 16:57:00,28.4,12.6,30.39,South,180,0.0,0.0,51,0.00,,,0.00,WeatherCatV1.11B39,2013-11-30 21:57:00,
2013-11-30 17:02:00,28.3,13.0,30.39,South,180,0.0,0.0,52,0.00,,,0.00,WeatherCatV1.11B39,2013-11-30 22:02:00,
2013-11-30 17:07:00,28.1,13.2,30.39,South,180,0.0,0.0,53,0.00,,,0.00,WeatherCatV1.11B39,2013-11-30 22:07:00,
2013-11-30 17:12:00,28.0,12.7,30.38,South,180,0.0,0.0,52,0.00,,,0.00,WeatherCatV1.11B39,2013-11-30 22:12:00,
2013-11-30 17:17:00,28.0,13.1,30.38,South,180,0.0,0.0,53,0.00,,,0.00,WeatherCatV1.11B39,2013-11-30 22:17:00,
2013-11-30 17:22:00,27.8,12.9,30.38,South,180,0.0,0.0,53,0.00,,,0.00,WeatherCatV1.11B39,2013-11-30 22:22:00,
2013-11-30 17:27:00,27.8,12.9,30.38,South,180,0.0,0.0,53,0.00,,,0.00,WeatherCatV1.11B39,2013-11-30 22:27:00,
2013-11-30 17:32:00,27.7,13.2,30.38,South,180,0.0,0.0,54,0.00,,,0.00,WeatherCatV1.11B39,2013-11-30 22:32:00,
2013-11-30 17:37:00,27.5,13.1,30.38,South,180,0.0,0.0,54,0.00,,,0.00,WeatherCatV1.11B39,2013-11-30 22:37:00,
2013-11-30 17:42:00,27.5,13.1,30.37,South,180,0.0,0.0,54,0.00,,,0.00,WeatherCatV1.11B39,2013-11-30 22:42:00,
2013-11-30 17:47:00,27.4,13.4,30.37,South,180,0.0,0.0,55,0.00,,,0.00,WeatherCatV1.11B39,2013-11-30 22:47:00,
2013-11-30 17:52:00,27.4,13.4,30.37,South,179,0.0,0.0,55,0.00,,,0.00,WeatherCatV1.11B39,2013-11-30 22:52:00,
2013-11-30 17:57:00,27.2,13.6,30.37,South,179,0.0,0.0,56,0.00,,,0.00,WeatherCatV1.11B39,2013-11-30 22:57:00,
2013-11-30 18:02:00,27.4,13.4,30.36,South,179,0.0,0.0,55,0.00,,,0.00,WeatherCatV1.11B39,2013-11-30 23:02:00,
2013-11-30 18:07:00,27.4,13.4,30.36,South,179,0.0,0.0,55,0.00,,,0.00,WeatherCatV1.11B39,2013-11-30 23:07:00,
2013-11-30 18:12:00,27.5,13.5,30.36,South,179,0.0,0.0,55,0.00,,,0.00,WeatherCatV1.11B39,2013-11-30 23:12:00,
2013-11-30 18:17:00,27.7,12.8,30.36,South,177,0.0,0.0,53,0.00,,,0.00,WeatherCatV1.11B39,2013-11-30 23:17:00,
2013-11-30 18:22:00,27.8,12.9,30.35,South,178,0.0,0.0,53,0.00,,,0.00,WeatherCatV1.11B39,2013-11-30 23:22:00,
2013-11-30 18:27:00,28.0,13.1,30.35,South,178,0.0,0.0,53,0.00,,,0.00,WeatherCatV1.11B39,2013-11-30 23:27:00,
2013-11-30 18:32:00,28.0,13.1,30.35,South,177,0.0,0.0,53,0.00,,,0.00,WeatherCatV1.11B39,2013-11-30 23:32:00,
2013-11-30 18:37:00,28.1,12.8,30.35,South,177,0.0,0.0,52,0.00,,,0.00,WeatherCatV1.11B39,2013-11-30 23:37:00,
2013-11-30 18:42:00,28.1,12.8,30.35,South,177,0.0,0.0,52,0.00,,,0.00,WeatherCatV1.11B39,2013-11-30 23:42:00,
2013-11-30 18:47:00,28.1,12.8,30.36,South,177,0.0,0.0,52,0.00,,,0.00,WeatherCatV1.11B39,2013-11-30 23:47:00,
2013-11-30 18:52:00,28.1,12.3,30.35,South,178,0.0,0.0,51,0.00,,,0.00,WeatherCatV1.11B39,2013-11-30 23:52:00,
2013-11-30 18:57:00,28.2,12.4,30.35,South,179,0.0,0.0,51,0.00,,,0.00,WeatherCatV1.11B39,2013-11-30 23:57:00,
2013-11-30 19:02:00,28.4,12.6,30.35,South,179,0.0,0.0,51,0.00,,,0.00,WeatherCatV1.11B39,2013-12-01 00:02:00,
2013-11-30 19:07:00,28.4,12.2,30.35,South,179,0.0,0.0,50,0.00,,,0.00,WeatherCatV1.11B39,2013-12-01 00:07:00,
2013-11-30 19:12:00,28.4,12.2,30.35,South,179,0.0,0.0,50,0.00,,,0.00,WeatherCatV1.11B39,2013-12-01 00:12:00,
2013-11-30 19:17:00,28.4,12.2,30.35,South,179,0.0,0.0,50,0.00,,,0.00,WeatherCatV1.11B39,2013-12-01 00:17:00,
2013-11-30 19:22:00,28.4,12.6,30.34,South,179,0.0,0.0,51,0.00,,,0.00,WeatherCatV1.11B39,2013-12-01 00:22:00,
2013-11-30 19:27:00,28.4,12.2,30.35,South,179,0.0,0.0,50,0.00,,,0.00,WeatherCatV1.11B39,2013-12-01 00:27:00,
2013-11-30 19:32:00,28.4,13.0,30.34,South,178,0.0,0.0,52,0.00,,,0.00,WeatherCatV1.11B39,2013-12-01 00:32:00,
2013-11-30 19:37:00,28.4,12.6,30.34,South,178,0.0,0.0,51,0.00,,,0.00,WeatherCatV1.11B39,2013-12-01 00:37:00,
2013-11-30 19:42:00,28.3,13.0,30.34,South,178,0.0,0.0,52,0.00,,,0.00,WeatherCatV1.11B39,2013-12-01 00:42:00,
2013-11-30 19:47:00,28.2,12.9,30.34,South,178,0.0,0.0,52,0.00,,,0.00,WeatherCatV1.11B39,2013-12-01 00:47:00,
2013-11-30 19:52:00,28.2,12.9,30.34,South,178,0.0,0.0,52,0.00,,,0.00,WeatherCatV1.11B39,2013-12-01 00:52:00,
2013-11-30 19:57:00,28.2,12.9,30.34,South,178,0.0,0.0,52,0.00,,,0.00,WeatherCatV1.11B39,2013-12-01 00:57:00,
2013-11-30 20:02:00,28.1,13.2,30.33,South,178,0.0,0.0,53,0.00,,,0.00,WeatherCatV1.11B39,2013-12-01 01:02:00,
2013-11-30 20:07:00,28.1,12.8,30.33,South,178,0.0,0.0,52,0.00,,,0.00,WeatherCatV1.11B39,2013-12-01 01:07:00,
2013-11-30 20:12:00,28.1,13.2,30.33,South,178,0.0,0.0,53,0.00,,,0.00,WeatherCatV1.11B39,2013-12-01 01:12:00,
2013-11-30 20:17:00,28.1,13.6,30.32,South,178,0.0,0.0,54,0.00,,,0.00,WeatherCatV1.11B39,2013-12-01 01:17:00,
2013-11-30 20:22:00,28.0,13.1,30.32,South,178,0.0,0.0,53,0.00,,,0.00,WeatherCatV1.11B39,2013-12-01 01:22:00,
2013-11-30 20:27:00,28.0,13.1,30.32,South,178,0.0,0.0,53,0.00,,,0.00,WeatherCatV1.11B39,2013-12-01 01:27:00,
2013-11-30 20:32:00,27.8,13.3,30.31,South,178,0.0,0.0,54,0.00,,,0.00,WeatherCatV1.11B39,2013-12-01 01:32:00,
2013-11-30 20:37:00,27.8,13.8,30.32,South,178,0.0,0.0,55,0.00,,,0.00,WeatherCatV1.11B39,2013-12-01 01:37:00,
2013-11-30 20:42:00,27.7,13.7,30.32,South,178,0.0,0.0,55,0.00,,,0.00,WeatherCatV1.11B39,2013-12-01 01:42:00,
2013-11-30 20:43:00,27.7,13.7,30.31,South,178,0.0,0.0,55,0.00,,,0.00,WeatherCatV1.11B39,2013-12-01 01:43:00,
2013-11-30 20:48:00,27.7,13.7,30.31,South,178,0.0,0.0,55,0.00,,,0.00,WeatherCatV1.11B39,2013-12-01 01:48:00,
2013-11-30 20:53:00,27.5,13.5,30.31,South,178,0.0,0.0,55,0.00,,,0.00,WeatherCatV1.11B39,2013-12-01 01:53:00,
2013-11-30 20:58:00,27.7,13.7,30.32,South,178,0.0,0.0,55,0.00,,,0.00,WeatherCatV1.11B39,2013-12-01 01:58:00,
2013-11-30 21:03:00,27.7,13.7,30.31,South,178,0.0,0.0,55,0.00,,,0.00,WeatherCatV1.11B39,2013-12-01 02:03:00,
2013-11-30 21:08:00,27.7,14.1,30.31,South,178,0.0,0.0,56,0.00,,,0.00,WeatherCatV1.11B39,2013-12-01 02:08:00,
2013-11-30 21:13:00,27.7,14.1,30.31,South,177,0.0,0.0,56,0.00,,,0.00,WeatherCatV1.11B39,2013-12-01 02:13:00,
2013-11-30 21:18:00,27.5,13.5,30.30,South,177,0.0,0.0,55,0.00,,,0.00,WeatherCatV1.11B39,2013-12-01 02:18:00,
2013-11-30 21:23:00,27.5,13.5,30.30,South,177,0.0,0.0,55,0.00,,,0.00,WeatherCatV1.11B39,2013-12-01 02:23:00,
2013-11-30 21:28:00,27.5,13.9,30.30,South,177,0.0,0.0,56,0.00,,,0.00,WeatherCatV1.11B39,2013-12-01 02:28:00,
2013-11-30 21:33:00,27.7,14.1,30.30,South,176,0.0,0.0,56,0.00,,,0.00,WeatherCatV1.11B39,2013-12-01 02:33:00,
2013-11-30 21:38:00,27.5,14.3,30.30,South,177,0.0,0.0,57,0.00,,,0.00,WeatherCatV1.11B39,2013-12-01 02:38:00,
2013-11-30 21:43:00,27.5,14.3,30.30,South,176,0.0,0.0,57,0.00,,,0.00,WeatherCatV1.11B39,2013-12-01 02:43:00,
2013-11-30 21:48:00,27.5,14.7,30.30,South,176,0.0,0.0,58,0.00,,,0.00,WeatherCatV1.11B39,2013-12-01 02:48:00,
2013-11-30 21:53:00,27.7,14.9,30.30,South,176,0.0,0.0,58,0.00,,,0.00,WeatherCatV1.11B39,2013-12-01 02:53:00,
2013-11-30 21:58:00,27.7,14.9,30.29,South,177,0.0,0.0,58,0.00,,,0.00,WeatherCatV1.11B39,2013-12-01 02:58:00,
2013-11-30 22:03:00,27.7,15.3,30.29,South,176,0.0,0.0,59,0.00,,,0.00,WeatherCatV1.11B39,2013-12-01 03:03:00,
2013-11-30 22:08:00,27.7,15.3,30.29,South,177,0.0,0.0,59,0.00,,,0.00,WeatherCatV1.11B39,2013-12-01 03:08:00,
2013-11-30 22:13:00,27.7,15.3,30.28,South,176,0.0,0.0,59,0.00,,,0.00,WeatherCatV1.11B39,2013-12-01 03:13:00,
2013-11-30 22:18:00,27.7,15.3,30.28,South,177,0.0,0.0,59,0.00,,,0.00,WeatherCatV1.11B39,2013-12-01 03:18:00,
2013-11-30 22:23:00,27.7,15.7,30.28,South,176,0.0,0.0,60,0.00,,,0.00,WeatherCatV1.11B39,2013-12-01 03:23:00,
2013-11-30 22:28:00,27.8,15.7,30.28,South,177,0.0,0.0,60,0.00,,,0.00,WeatherCatV1.11B39,2013-12-01 03:28:00,
2013-11-30 22:33:00,27.8,15.7,30.27,South,176,0.0,0.0,60,0.00,,,0.00,WeatherCatV1.11B39,2013-12-01 03:33:00,
2013-11-30 22:38:00,27.8,15.7,30.27,South,177,0.0,0.0,60,0.00,,,0.00,WeatherCatV1.11B39,2013-12-01 03:38:00,
2013-11-30 22:43:00,28.0,15.9,30.27,South,176,0.0,0.0,60,0.00,,,0.00,WeatherCatV1.11B39,2013-12-01 03:43:00,
2013-11-30 22:48:00,27.9,16.2,30.26,South,176,0.0,0.0,61,0.00,,,0.00,WeatherCatV1.11B39,2013-12-01 03:48:00,
2013-11-30 22:53:00,28.0,16.3,30.26,South,176,0.0,0.0,61,0.00,,,0.00,WeatherCatV1.11B39,2013-12-01 03:53:00,
2013-11-30 22:58:00,28.0,16.7,30.26,South,176,0.0,0.0,62,0.00,,,0.00,WeatherCatV1.11B39,2013-12-01 03:58:00,
2013-11-30 23:03:00,28.0,16.7,30.25,South,177,0.0,0.0,62,0.00,,,0.00,WeatherCatV1.11B39,2013-12-01 04:03:00,
2013-11-30 23:08:00,28.1,16.8,30.25,South,177,0.0,0.0,62,0.00,,,0.00,WeatherCatV1.11B39,2013-12-01 04:08:00,
2013-11-30 23:13:00,28.1,17.2,30.25,South,176,0.0,0.0,63,0.00,,,0.00,WeatherCatV1.11B39,2013-12-01 04:13:00,
2013-11-30 23:18:00,28.1,16.8,30.24,South,176,0.0,0.0,62,0.00,,,0.00,WeatherCatV1.11B39,2013-12-01 04:18:00,
2013-11-30 23:23:00,28.2,16.9,30.24,South,176,0.0,0.0,62,0.00,,,0.00,WeatherCatV1.11B39,2013-12-01 04:23:00,
2013-11-30 23:28:00,28.2,16.9,30.24,South,176,0.0,0.0,62,0.00,,,0.00,WeatherCatV1.11B39,2013-12-01 04:28:00,
2013-11-30 23:33:00,28.2,16.9,30.24,South,176,0.0,0.0,62,0.00,,,0.00,WeatherCatV1.11B39,2013-12-01 04:33:00,
2013-11-30 23:38:00,28.3,17.3,30.23,South,176,0.0,0.0,63,0.00,,,0.00,WeatherCatV1.11B39,2013-12-01 04:38:00,
2013-11-30 23:43:00,28.3,17.3,30.23,South,176,0.0,0.0,63,0.00,,,0.00,WeatherCatV1.11B39,2013-12-01 04:43:00,
2013-11-30 23:48:00,28.2,17.6,30.23,South,176,0.0,0.0,64,0.00,,,0.00,WeatherCatV1.11B39,2013-12-01 04:48:00,
2013-11-30 23:53:00,28.3,17.3,30.22,South,176,0.0,0.0,63,0.00,,,0.00,WeatherCatV1.11B39,2013-12-01 04:53:00,
2013-11-30 23:58:00,28.3,17.7,30.22,South,177,0.0,0.0,64,0.00,,,0.00,WeatherCatV1.11B39,2013-12-01 04:58:00,